This demonstration page uses our WeatherBlox Daily Observations layout. Learn more.

Left ArrowRight Arrow

30.21309, -93.2044

Hourly Observations for April 27, 2022

Temp ( °F °C ) Dew Point ( °F °C ) Humidity (%) Winds ( mph kmh ) Pressure ( in mb ) Visibility ( mi km ) Precip ( " mm )
12:15 am 00:15 Clear 62 16.6 49 9.7 64 64 NE 6 9 30.23 1024 10 16 0.00 0.00
12:35 am 00:35 Clear 61 16.1 50 9.8 66 66 NE 6 9 30.23 1024 10 16 0.00 0.00
12:55 am 00:55 Clear 60 15.8 50 9.8 68 68 NE 7 11 30.23 1024 10 16 0.00 0.00
1:15 am 01:15 Clear 59 15.2 50 9.8 70 70 NE 6 9 30.23 1024 10 16 0.00 0.00
1:35 am 01:35 Clear 60 15.3 49 9.4 68 68 NE 6 9 30.23 1024 10 16 0.00 0.00
1:55 am 01:55 Clear 60 15.3 49 9.3 68 68 NE 7 11 30.23 1024 10 16 0.00 0.00
2:15 am 02:15 Clear 59 15.1 48 9.1 68 68 NE 7 11 30.22 1023 10 16 0.00 0.00
2:35 am 02:35 Clear 59 14.8 48 8.8 68 68 NE 7 11 30.21 1023 10 16 0.00 0.00
2:55 am 02:55 Clear 58 14.7 48 8.7 68 68 NE 7 11 30.21 1023 10 16 0.00 0.00
3:15 am 03:15 Clear 58 14.4 47 8.6 68 68 NNE 7 11 30.21 1023 10 16 0.00 0.00
3:35 am 03:35 Clear 57 14 47 8.5 70 70 NNE 7 11 30.21 1023 10 16 0.00 0.00
3:55 am 03:55 Clear 57 14.1 47 8.3 68 68 NE 7 11 30.21 1023 10 16 0.00 0.00
4:15 am 04:15 Clear 57 13.9 47 8.1 68 68 NE 8 13 30.21 1023 10 16 0.00 0.00
4:35 am 04:35 Clear 56 13.6 47 8.1 70 70 NE 7 11 30.21 1023 10 16 0.00 0.00
4:55 am 04:55 Clear 56 13.3 46 7.9 70 70 NE 5 7 30.21 1023 10 16 0.00 0.00
5:15 am 05:15 Clear 56 13.2 45 7.3 68 68 NE 6 9 30.20 1023 10 16 0.00 0.00
5:35 am 05:35 Clear 55 12.8 45 7.1 69 69 NE 6 9 30.20 1023 10 16 0.00 0.00
5:50 am 05:50 Clear 55 13 45 7 67 67 NNE 5 7 30.21 1023 10 16 0.00 0.00
6:50 am 06:50 Sunny 54 12 45 7 72 72 NNE 5 7 30.22 1023 10 16 0.00 0.00
7:50 am 07:50 Sunny 55 13 46 8 72 72 NE 8 13 30.23 1024 10 16 0.00 0.00
8:50 am 08:50 Sunny 63 17 46 8 56 56 ENE 12 19 30.23 1024 10 16 0.00 0.00
9:47 am 09:47 Sunny 64 18 48 9 56 56 E 14 22 30.24 1024 10 16 0.00 0.00
10:50 am 10:50 Sunny 70 21 48 9 46 46 ENE 7 11 30.24 1024 10 16 0.00 0.00
11:45 am 11:45 Mostly Sunny 72 22 50 10 47 47 ESE 8 13 30.23 1024 10 16 0.00 0.00
12:47 pm 12:47 Mostly Sunny 73 23 54 12 50 50 ESE 9 15 30.20 1023 10 16 0.00 0.00
1:47 pm 13:47 Mostly Sunny 75 24 52 11 44 44 ENE 7 11 30.17 1022 10 16 0.00 0.00
2:50 pm 14:50 Mostly Sunny 79 26 50 10 37 37 E 7 11 30.15 1021 10 16 0.00 0.00
3:55 pm 15:55 Mostly Sunny 79 26 48 9 34 34 ESE 3 6 30.13 1020 10 16 0.00 0.00
4:50 pm 16:50 Mostly Sunny 79 26 41 5 26 26 ENE 5 7 30.11 1020 10 16 0.00 0.00
5:53 pm 17:53 Mostly Sunny 79 26 39 4 24 24 ENE 5 7 30.09 1019 10 16 0.00 0.00
6:45 pm 18:45 Mostly Sunny 75 24 45 7 34 34 ESE 7 11 30.09 1019 10 16 0.00 0.00
7:45 pm 19:45 Mostly Sunny 70 21 46 8 43 43 ESE 7 11 30.09 1019 10 16 0.00 0.00
8:55 pm 20:55 Mostly Clear 64 18 48 9 56 56 Calm 30.10 1019 10 16 0.00 0.00
9:47 pm 21:47 Mostly Clear 64 18 48 9 56 56 Calm 30.11 1020 10 16 0.00 0.00
10:15 pm 22:15 Clear 63 17.1 51 10.3 64 64 E 5 7 30.12 1020 10 16 0.00 0.00
10:35 pm 22:35 Clear 62 16.7 51 10.4 67 67 E 5 7 30.12 1020 10 16 0.00 0.00
10:55 pm 22:55 Clear 63 17.3 49 9.3 60 60 S 6 9 30.12 1020 10 16 0.00 0.00
11:15 pm 23:15 Clear 61 16.3 49 9.4 64 64 S 5 7 30.12 1020 10 16 0.00 0.00
11:35 pm 23:35 Clear 61 16.1 50 10 67 67 Calm 30.11 1020 10 16 0.00 0.00
11:55 pm 23:55 Clear 62 16.8 49 9.7 63 63 Calm 30.11 1020 10 16 0.00 0.00

Powered by AerisWeather